Content
SEND FEEDBACK

Daily
Averages
Monthly
Summary
Switzerland

ZÜRICH, SWITZERLAND


Home > Europe > Switzerland
Elevation: 1867 feet     Latitude: 47 23N     Longitude: 008 34E

WEATHER
 
SELECT A DAY
Number of Records: 289,523;   Date Range: 7/1/96 - 10/21/14
 
SHARE

PRINT THIS DATA

[ ← Previous Day ]
WEATHER ALMANAC - JANUARY 29, 2014
[ Next Day → ]
[ °C ]   °F
Weather ElementAverageHighLow
Temperature30.4 °F37.4 °F (3:50 pm)24.8 °F (2:50 am)
Dewpoint24.5 °F26.6 °F (8:50 pm)23 °F (1:50 am)
Humidity79.6 %93 % (2:50 am)60 % (3:50 pm)
Barometer29.49 in29.62 in (11:50 pm)29.44 in (3:50 am)
Wind Speed2.5 mph5.8 mph (9:50 am)
Weather ElementAverage
Visibility6.2 mi
Wind DirectionESE (100.5 °)

Weather ElementTotal
Precipitation---
Heating Degree Days33.9 (Base 65)
Averaged from 22 records on January 29, 2014
WEATHER CONDITIONS BREAKOUT
WIND DIRECTION BREAKOUT
WEATHER BY HOUR - JANUARY 29, 2014
[ °C ]   °F
Local TimeTemperatureDewpointHumidityBarometerVisibilityWind DirectionWind SpeedGust SpeedPrecipitationEventsConditions
1:50 AM26.6 °F23.0 °F86 %29.47 in6.2 miVariable2.3 mph
2:50 AM24.8 °F23.0 °F93 %29.47 in6.2 miESE (110°)2.3 mph
3:50 AM24.8 °F23.0 °F93 %29.44 in6.2 miCalm
4:50 AM24.8 °F23.0 °F93 %29.44 in6.2 miCalm
5:50 AM24.8 °F23.0 °F93 %29.44 in6.2 miVariable2.3 mph
6:50 AM24.8 °F23.0 °F93 %29.44 in5.6 miCalm
7:50 AM26.6 °F23.0 °F86 %29.47 inCalmClear
8:50 AM26.6 °F24.8 °F93 %29.47 inESE (120°)4.6 mphClear
9:50 AM30.2 °F24.8 °F80 %29.47 inESE (120°)5.8 mphClear
11:50 AM33.8 °F24.8 °F70 %29.47 inEast (80°)5.8 mphClear
12:50 PM33.8 °F24.8 °F70 %29.47 in6.2 miNNE (30°)5.8 mphMostly Cloudy
1:50 PM35.6 °F24.8 °F65 %29.47 in6.2 miENE (70°)4.6 mphMostly Cloudy
2:50 PM35.6 °F24.8 °F65 %29.47 in6.2 miNorth (360°)3.5 mphScattered Clouds
3:50 PM37.4 °F24.8 °F60 %29.47 in6.2 miNW (310°)3.5 mphMostly Cloudy
4:50 PM35.6 °F24.8 °F65 %29.47 in6.2 miVariable1.2 mphOvercast
5:50 PM33.8 °F23.0 °F65 %29.47 in6.2 miVariable1.2 mph
6:50 PM32.0 °F24.8 °F75 %29.50 in6.2 miVariable1.2 mph
7:50 PM32.0 °F24.8 °F75 %29.53 in6.2 miVariable2.3 mphPartly Cloudy
8:50 PM30.2 °F26.6 °F86 %29.53 in6.2 miNNW (340°)3.5 mphMostly Cloudy
9:50 PM32.0 °F26.6 °F80 %29.56 in6.2 miNW (320°)4.6 mphOvercast
10:50 PM32.0 °F26.6 °F80 %29.59 in6.2 miNorth (350°)1.2 mphMostly Cloudy
11:50 PM30.2 °F26.6 °F86 %29.62 in6.2 miCalmMostly Cloudy
Hourly data recorded from LSMD, located miles away from Zürich, Switzerland







STORIES FROM OUR PARTNERS